Wind_Speed
13 14 21 22 20 20 16 12 9 9 11 11 11 12 13 8 5 6 6 6 9 10 12 14 15 17 20 23 24 24 25 26 25 24 23 21 19 19 17 15 14 12 11 10 8 8 10 12 12 12 12 11 11 10 8 8 9 11 12 13 14 14 13 13 14 14 13 12 11 11 11 12 11 11 11 12 13 13 14 15 15 14 14 14 13 13
13 16 24 21 14 14 13 11 12 12 13 14 14 13 14 13 8 7 7 5 7 7 7 10 14 16 18 20 24 26 27 28 27 26 25 24 22 21 19 16 15 14 12 11 10 9 11 13 12 12 13 12 11 10 9 8 9 11 12 12 13 12 12 12 12 12 11 11 11 10 10 10 10 9 10 11 12 12 14 15 15 15 14 14 14 13
14 19 23 18 9 8 9 10 11 12 12 14 15 14 16 16 12 9 9 6 6 6 7 9 11 13 17 19 23 27 28 27 27 26 24 24 24 23 22 18 16 15 14 12 11 10 11 12 12 13 13 13 11 11 9 9 10 10 12 13 13 12 11 11 11 11 11 11 11 11 10 10 9 9 10 10 12 13 14 14 15 15 14 14 14 13
11 14 14 11 7 6 6 6 7 8 10 12 11 12 15 17 15 10 9 8 7 6 7 9 9 10 15 20 22 26 29 28 29 28 25 25 25 24 23 19 17 16 15 14 12 11 11 12 13 13 14 14 13 13 11 10 10 10 11 13 13 12 12 12 12 12 11 11 12 12 11 10 10 10 10 10 11 13 14 14 14 14 14 14 13 13
7 8 6 6 7 8 6 4 4 5 9 10 9 9 11 13 16 12 8 9 10 8 8 8 9 10 13 17 20 23 27 29 30 31 29 28 26 24 23 21 19 18 16 15 13 11 11 11 12 13 14 14 14 14 12 10 10 10 11 12 13 13 12 12 13 13 12 12 12 12 11 11 10 10 9 9 10 12 13 13 14 14 14 13 13 12
5 6 3 4 5 7 6 5 5 4 6 8 6 5 4 6 13 14 10 12 12 9 9 9 6 6 9 12 14 18 24 28 30 32 33 32 29 27 25 24 23 20 18 17 15 12 10 10 10 12 13 14 14 14 13 12 11 11 11 13 14 14 13 13 13 13 13 12 12 11 9 9 9 9 9 10 10 10 11 13 14 15 14 14 12 11
5 5 2 1 2 6 6 5 7 7 6 6 3 2 2 4 10 14 13 12 12 8 8 10 6 3 6 8 9 13 18 22 28 31 33 33 33 31 29 27 25 23 21 19 17 14 12 11 10 11 12 13 14 14 15 14 13 13 13 13 14 14 14 14 14 13 12 12 11 9 8 9 9 9 10 10 10 11 12 13 14 15 14 14 12 11
5 5 3 4 6 7 7 8 9 9 8 4 2 1 2 2 4 10 12 10 9 7 7 12 10 6 8 7 8 12 13 16 23 27 31 34 35 34 32 30 28 26 24 21 19 16 14 12 10 9 9 11 13 14 16 16 15 14 13 13 14 14 14 14 14 13 12 11 11 10 9 10 10 10 10 10 10 10 11 13 14 14 14 13 13 12
5 6 6 8 9 10 12 10 7 7 9 4 3 2 2 3 3 4 10 11 10 8 8 14 14 7 8 7 7 11 12 13 16 20 25 31 36 36 35 33 31 28 26 24 21 18 15 13 10 8 8 9 13 15 16 16 16 15 14 13 14 14 14 13 13 13 12 11 11 11 10 9 10 10 10 10 10 10 10 12 13 14 14 13 13 12
8 6 6 9 12 12 10 6 3 4 5 5 4 1 5 7 5 3 9 12 10 7 8 13 15 8 5 7 6 7 8 6 7 11 17 25 33 37 37 35 33 31 29 26 24 21 18 15 11 9 9 10 13 15 16 17 17 16 15 14 15 15 14 13 12 12 12 11 12 11 10 9 9 9 9 9 9 8 9 10 12 12 13 13 12 12
9 7 6 8 10 9 7 5 4 3 2 3 4 4 7 6 6 10 14 14 7 5 8 10 15 12 2 4 1 3 5 3 3 5 10 18 26 34 38 38 36 33 31 29 26 23 20 17 14 12 12 11 13 16 18 18 18 17 16 14 14 15 14 13 13 13 13 12 11 11 10 9 8 8 8 7 8 7 8 9 9 10 11 12 12 11
10 11 9 9 8 7 8 8 7 6 4 4 2 4 8 6 7 10 12 10 4 3 5 5 12 15 7 3 3 5 7 8 6 4 5 9 16 26 34 38 38 36 33 31 28 25 22 20 17 15 14 13 14 17 18 19 18 18 17 15 15 15 15 14 13 14 14 12 12 12 12 10 9 9 8 8 8 8 8 8 8 9 10 10 10 10
11 14 13 11 8 8 8 8 8 9 7 5 4 5 8 5 3 4 4 4 5 7 6 3 9 14 10 10 10 11 10 9 7 5 4 5 8 16 26 33 37 37 35 34 31 28 25 23 19 16 16 15 15 17 18 19 19 19 18 16 15 16 16 15 15 15 14 13 12 12 13 12 11 10 9 9 10 9 9 9 9 8 9 9 9 9
6 12 16 14 10 9 9 7 9 11 11 10 7 4 6 5 3 2 3 1 4 8 7 4 8 8 7 7 9 9 8 7 6 5 6 6 7 11 19 27 33 36 36 35 33 30 28 26 21 18 17 17 16 17 18 19 19 19 19 17 16 16 16 16 15 15 15 14 13 14 14 14 12 12 11 11 11 10 10 10 9 9 9 8 8 9
1 8 15 16 12 10 8 6 8 11 12 11 9 6 5 4 3 3 3 2 3 4 5 7 7 4 4 4 6 7 7 7 7 6 5 6 7 10 15 22 29 34 36 36 35 33 30 28 24 19 18 18 17 17 18 19 20 20 19 18 17 16 17 17 16 16 15 14 14 15 15 15 14 13 13 13 12 11 11 10 10 10 9 9 10 10
3 5 11 13 10 8 7 6 8 10 8 6 7 7 6 4 3 3 3 3 2 1 3 5 5 5 6 6 7 8 7 8 8 7 6 6 7 9 12 17 23 29 34 36 36 34 31 29 26 21 19 19 18 17 18 19 20 20 19 18 18 17 17 17 17 16 14 14 15 16 17 16 15 15 14 14 13 12 11 11 11 11 10 10 11 11
2 3 7 12 10 7 7 8 9 8 6 7 7 6 5 4 3 3 3 1 0 1 2 3 4 6 7 7 9 9 8 8 8 8 8 7 7 9 11 14 18 24 31 36 37 36 33 30 28 24 21 19 18 17 18 19 19 20 20 19 18 19 18 18 18 17 15 14 15 16 17 17 16 16 15 14 13 13 12 12 12 12 11 12 12 11
5 5 4 9 10 10 10 10 10 7 5 6 8 7 6 5 4 4 2 0 1 0 2 5 6 8 7 6 7 8 8 8 8 8 7 6 5 7 12 15 17 22 28 34 37 36 34 32 29 27 23 21 19 18 18 18 18 20 21 20 19 19 19 18 18 18 16 15 14 15 17 18 17 16 15 15 14 14 14 13 12 12 11 12 11 11
8 7 5 3 6 11 12 9 8 7 4 4 6 7 6 4 4 5 3 1 1 1 2 4 6 8 10 9 7 7 8 8 8 7 7 6 5 6 10 14 18 21 25 32 37 37 36 33 31 29 26 22 20 19 18 18 18 19 21 22 21 20 19 19 18 18 18 16 14 14 16 18 18 17 16 15 15 14 14 13 12 12 12 12 12 12
9 8 6 7 7 11 11 8 7 8 6 3 3 6 5 3 4 6 5 3 3 2 1 2 3 6 10 10 8 8 8 7 6 7 8 8 7 7 9 13 16 20 23 27 33 37 37 34 32 31 28 24 20 20 19 19 19 19 20 23 23 21 21 21 21 20 19 18 16 15 16 18 18 18 17 16 16 15 14 14 14 13 13 13 13 13
9 10 6 6 7 8 7 7 7 8 7 4 5 7 5 4 4 5 5 5 3 2 2 2 2 6 9 9 8 8 7 6 6 8 9 10 10 8 9 12 13 16 19 23 29 36 39 37 34 32 30 26 22 21 21 20 20 19 20 24 24 23 23 23 22 22 21 19 18 17 17 18 18 18 18 17 17 16 15 15 15 14 14 14 14 13
6 8 6 3 5 6 5 4 5 5 5 4 6 7 3 2 5 4 4 7 6 3 3 3 2 7 9 8 7 8 7 6 6 8 9 10 11 9 8 10 12 13 14 19 25 32 36 36 35 33 32 30 25 24 23 23 22 20 21 24 26 25 24 23 23 22 21 21 20 19 18 18 19 18 18 18 18 17 17 16 16 15 15 15 14 14
6 3 3 2 3 5 4 4 6 7 6 7 7 5 1 3 7 5 4 7 8 5 4 3 3 6 8 7 6 7 8 7 7 9 10 10 10 8 7 9 12 13 13 16 20 25 30 32 32 31 31 30 28 26 25 24 23 22 21 23 26 27 24 23 23 22 22 22 22 21 20 20 20 20 19 19 18 17 17 17 17 16 16 16 15 15
5 3 2 4 5 7 8 9 10 9 8 8 5 4 2 2 6 7 6 6 7 7 6 3 2 5 6 5 5 6 7 7 8 10 10 9 9 8 8 9 10 12 13 15 18 21 25 28 31 33 32 31 29 29 28 26 24 23 23 23 25 27 25 23 23 23 23 23 23 23 22 22 22 22 22 20 19 19 18 18 18 17 17 16 16 17
5 6 4 4 6 7 8 9 10 9 8 5 2 4 4 3 5 7 7 6 7 8 8 5 3 5 4 4 5 6 6 7 8 9 8 8 7 7 7 8 9 10 11 13 17 21 23 25 27 30 32 32 32 32 33 31 28 25 24 24 24 25 25 25 24 24 24 24 24 24 24 24 23 23 23 22 21 20 19 19 18 18 18 17 17 19
4 6 6 5 5 6 8 8 8 9 8 4 2 4 5 6 7 6 7 9 7 7 9 7 5 6 5 5 6 5 5 7 8 8 8 8 7 6 6 7 8 10 10 10 12 17 21 24 25 26 26 27 31 35 35 34 32 29 26 25 25 24 25 26 25 25 25 25 25 25 25 25 25 24 24 23 22 22 21 20 19 19 18 18 18 19
2 2 4 7 9 12 15 11 4 5 5 3 3 4 7 10 11 9 9 9 7 8 11 9 6 7 6 5 5 5 5 7 9 9 9 9 9 8 7 8 10 11 11 10 11 13 16 19 23 25 25 25 29 34 37 36 34 32 29 27 25 24 25 26 27 27 27 26 26 26 26 26 25 25 24 24 23 22 22 21 20 20 19 19 20 20
1 0 3 7 10 13 14 8 2 3 4 4 5 5 7 10 16 16 13 8 6 8 9 6 4 5 5 3 4 6 6 7 8 9 10 11 11 10 9 8 10 12 12 10 10 11 13 14 17 21 25 26 26 29 35 38 37 35 32 30 27 26 26 26 28 29 29 28 27 26 26 26 26 26 25 25 24 24 23 22 21 21 20 21 21 20
1 1 2 5 8 10 11 7 4 5 7 8 8 8 8 9 16 19 17 11 8 7 3 2 4 5 5 5 5 6 5 5 6 8 10 11 11 11 10 9 10 11 10 10 9 10 11 13 15 17 22 25 26 26 29 35 38 37 36 34 31 29 28 27 28 30 30 30 28 26 26 26 26 26 26 26 26 25 25 23 22 22 22 22 22 20
2 1 1 2 5 7 8 6 4 6 7 8 9 9 9 8 11 16 17 13 12 10 6 4 5 6 7 8 7 6 6 6 7 9 11 11 11 11 11 11 10 10 10 10 10 10 11 12 14 16 19 22 25 26 27 30 35 37 37 36 33 31 30 30 29 30 32 32 30 27 26 26 26 26 26 27 27 26 25 24 23 23 22 22 22 20
5 3 5 5 6 7 7 6 4 4 4 6 8 9 8 7 9 15 18 16 16 18 13 8 9 10 9 10 9 9 9 8 9 11 13 13 14 14 14 13 11 10 11 10 11 11 11 12 13 15 18 20 24 27 28 29 33 37 38 38 36 33 33 32 31 31 33 33 31 28 27 27 27 26 26 27 27 26 24 24 23 23 23 22 22 20
8 6 8 9 7 6 6 6 6 5 6 8 8 6 6 6 10 16 18 16 17 19 15 10 11 11 9 10 11 10 10 9 9 11 13 14 15 16 16 14 12 11 12 12 12 12 11 11 12 13 14 16 20 25 27 29 32 37 39 38 37 36 36 34 32 33 33 33 32 30 29 28 28 27 26 27 27 26 25 25 24 24 24 23 21 20
11 10 10 11 9 8 7 7 8 8 9 8 4 3 6 5 7 13 14 12 12 13 12 11 11 10 9 10 10 10 10 9 9 10 12 15 16 17 17 16 14 12 13 15 15 14 12 12 11 11 11 12 14 17 21 27 32 36 38 37 36 37 39 38 35 34 33 33 32 32 31 30 29 28 27 27 28 27 27 26 26 25 25 23 22 21
14 12 11 12 11 9 9 8 8 7 5 4 3 3 5 2 5 9 9 8 8 9 10 10 9 10 10 10 9 10 11 10 10 11 14 16 17 18 18 17 16 15 15 17 18 17 14 12 11 9 9 9 10 11 14 21 29 35 38 37 38 39 40 40 39 36 34 33 33 33 32 31 31 30 29 29 29 29 28 27 26 25 24 23 23 23
16 16 14 13 11 11 11 8 4 4 5 5 4 4 2 2 5 6 5 7 9 10 9 7 8 10 11 10 10 12 12 11 11 13 14 16 18 18 19 19 18 18 18 19 20 18 15 13 11 9 8 8 9 10 11 14 23 32 36 37 39 40 40 40 40 37 35 34 34 34 34 33 32 32 31 30 30 30 29 28 27 26 25 25 25 25
15 17 17 15 12 10 10 9 4 2 4 6 6 5 3 4 7 7 7 8 9 8 6 5 7 8 8 10 10 11 11 11 12 14 15 17 18 19 20 20 19 19 19 20 21 19 15 13 13 11 11 12 11 11 11 11 16 25 33 37 40 40 40 41 41 39 38 36 35 35 36 34 33 33 33 32 31 31 30 29 29 28 27 27 27 26
18 18 19 17 14 12 11 11 8 5 4 5 7 6 5 6 7 7 7 7 6 5 5 6 7 7 8 9 10 11 12 13 14 15 16 18 19 19 20 20 20 20 20 20 20 18 16 15 15 15 14 15 15 14 13 13 14 18 26 34 40 43 42 42 41 41 41 38 35 35 36 37 37 35 34 33 32 32 32 31 31 29 28 28 27 27
20 21 20 18 16 16 13 9 6 4 5 7 8 6 5 6 6 5 6 7 5 5 8 9 8 9 9 10 12 13 15 16 16 17 18 18 18 19 19 19 20 20 21 20 19 19 17 16 16 16 15 16 17 17 16 17 17 18 21 27 35 42 45 45 43 43 42 40 38 37 39 42 42 38 36 36 36 35 34 33 31 29 28 28 27 27
14 17 20 20 17 17 15 10 7 6 8 9 8 6 7 9 8 6 7 8 6 7 10 11 10 10 10 11 13 15 17 18 17 17 17 17 17 18 19 19 19 19 20 21 20 19 19 17 16 16 16 17 17 18 18 19 19 20 22 24 29 37 44 47 47 44 43 42 40 39 40 42 42 38 37 38 38 37 36 35 32 29 27 26 26 26
9 12 18 21 18 16 16 13 10 10 10 10 10 9 10 11 10 7 6 7 9 11 12 12 11 10 11 12 14 14 16 16 16 16 17 17 17 17 17 18 17 17 18 19 20 20 19 18 18 18 18 17 17 17 19 20 19 20 22 25 28 32 37 44 48 47 46 44 43 42 43 42 41 40 39 38 37 36 36 33 29 25 25 25 25 25
6 7 12 17 18 17 17 14 11 10 11 11 12 13 13 12 12 11 10 11 13 13 12 11 11 12 14 14 14 14 14 15 15 16 17 17 16 16 16 16 16 16 15 16 17 18 18 18 18 18 18 18 17 18 18 17 16 18 21 26 31 31 31 36 43 47 48 47 45 45 44 41 40 41 41 40 37 34 32 29 25 23 24 26 26 27
6 6 9 13 15 15 16 14 9 9 11 12 13 15 14 13 13 14 14 13 12 12 12 12 13 14 15 15 14 14 14 14 14 14 15 15 15 15 14 14 14 14 14 13 13 14 16 17 16 17 17 17 17 17 15 11 8 8 10 14 22 27 28 30 36 42 47 48 47 46 44 40 36 37 39 39 37 33 30 27 24 23 23 24 26 26
6 9 11 15 15 14 15 13 8 7 11 13 14 16 16 15 15 14 13 12 12 13 14 14 14 15 15 15 15 15 15 14 14 14 14 15 15 14 13 12 12 12 12 12 12 12 13 14 15 15 16 16 16 16 13 10 11 10 8 8 6 14 21 24 28 35 41 45 47 47 45 41 36 34 35 36 34 30 29 29 26 24 23 23 24 23
9 10 12 15 16 15 15 15 12 11 13 14 15 16 16 15 14 13 12 12 12 13 13 14 15 16 16 16 16 16 15 15 15 15 15 15 15 14 12 12 11 11 10 10 11 11 11 12 12 12 12 13 14 14 13 10 12 14 13 9 5 9 15 19 24 30 35 40 44 44 41 36 35 34 35 35 32 29 30 30 27 24 24 24 22 20
13 12 11 12 13 13 13 14 12 11 11 11 12 13 13 12 11 10 11 11 12 13 14 16 17 17 17 17 16 16 15 15 15 15 16 15 14 13 13 12 11 10 9 9 9 10 9 9 10 9 9 11 12 13 13 13 11 13 14 12 10 10 12 15 19 23 26 30 33 34 32 32 33 34 34 33 29 26 27 28 26 25 25 23 20 20
11 12 13 12 11 10 10 11 10 9 10 11 11 10 10 10 10 10 11 12 14 15 17 17 16 16 17 17 17 17 17 16 16 16 16 15 14 14 13 12 11 9 8 8 8 8 7 7 7 8 8 10 10 10 12 13 12 13 13 11 10 10 9 12 14 16 20 24 27 30 32 32 33 34 32 31 29 26 25 24 22 22 22 20 19 21
10 12 13 13 12 11 10 10 10 12 12 11 9 8 9 10 10 12 13 15 16 16 17 16 15 15 16 18 18 18 18 17 17 16 16 15 15 14 14 13 11 9 8 7 7 7 6 5 6 7 8 9 8 7 9 10 9 9 9 8 8 8 6 8 11 13 16 20 23 27 29 31 32 31 30 30 29 26 24 24 23 22 21 19 19 19
10 12 13 12 12 11 10 9 10 12 11 9 9 8 9 11 12 13 14 15 15 16 16 16 16 16 16 17 17 17 17 17 16 16 15 15 15 15 15 14 12 10 9 8 7 7 6 5 5 6 8 8 6 6 7 7 6 4 4 6 7 9 8 9 13 17 19 20 22 23 25 27 29 30 31 30 28 24 23 25 25 22 19 17 15 14
9 10 11 11 11 10 11 10 10 11 11 11 11 11 11 12 12 12 13 13 14 15 16 17 17 16 16 17 18 18 18 18 17 16 16 16 16 16 16 14 13 11 9 9 8 7 7 6 4 5 6 5 4 5 6 7 7 6 4 5 6 8 9 9 10 13 16 19 22 23 23 24 26 27 29 31 30 24 18 17 16 14 13 14 13 13
8 8 8 10 11 11 11 12 11 11 11 11 11 11 12 12 12 12 13 14 15 15 17 18 17 17 16 17 18 19 19 19 19 19 18 17 17 17 16 15 14 13 10 9 9 8 7 6 4 3 2 1 2 5 5 5 6 9 9 8 7 5 4 5 6 5 7 11 14 15 14 14 16 16 16 17 19 17 14 14 15 14 13 13 14 14
9 7 7 9 11 11 11 12 12 11 11 11 10 11 12 12 12 14 15 16 16 16 17 18 18 18 18 19 20 20 21 21 21 20 18 17 16 16 15 14 14 13 10 9 8 8 8 7 4 2 2 4 2 3 7 8 6 7 9 10 10 10 11 12 12 10 10 13 15 15 14 13 14 15 15 15 14 14 13 14 16 17 16 14 13 12
Wind_Direction
196 199 195 192 194 196 205 221 239 270 278 289 292 276 262 237 176 164 165 177 194 208 217 213 206 201 200 202 202 202 200 202 206 213 221 224 226 226 221 218 224 240 250 244 226 207 199 195 192 183 176 180 185 183 178 175 175 173 173 171 170 176 181 183 184 183 181 180 183 180 175 176 174 174 176 172 165 161 163 166 167 169 172 175 176 175
189 195 195 194 194 198 215 237 249 266 277 280 283 281 259 235 204 173 165 161 175 194 218 214 211 209 205 207 208 207 205 204 207 214 221 224 226 228 226 219 221 232 242 243 234 216 204 198 196 189 180 181 186 187 182 177 180 179 175 174 176 179 179 180 182 182 180 179 181 179 178 180 177 180 181 167 160 166 170 171 171 171 173 177 178 175
189 197 197 193 196 216 234 241 246 263 270 263 264 269 255 230 210 186 169 166 171 182 202 207 213 211 205 208 211 212 212 211 212 215 222 225 227 229 228 222 220 226 233 241 236 216 206 201 199 195 185 183 187 190 189 182 184 186 181 179 180 182 181 178 179 180 180 181 180 181 184 188 187 188 187 171 164 171 175 176 176 175 176 178 178 177
189 190 188 188 215 251 248 229 229 244 236 224 229 244 243 225 213 199 175 173 176 181 198 206 215 212 206 209 212 214 216 216 215 215 219 224 227 231 232 229 225 226 230 238 237 216 207 204 200 198 190 188 189 190 194 190 185 188 189 185 182 186 186 180 181 185 186 187 186 187 190 194 195 195 194 182 172 173 176 180 182 181 181 181 181 180
197 169 170 200 238 255 249 230 207 202 204 200 204 223 232 224 220 215 193 181 182 191 200 202 221 227 214 213 214 215 216 217 216 216 219 223 226 228 232 232 230 231 233 239 241 228 217 210 202 200 195 194 193 191 194 196 191 189 193 193 189 191 192 185 188 193 194 195 196 195 198 202 202 201 198 190 180 177 178 183 186 185 185 185 185 183
206 159 192 237 249 237 229 227 218 223 215 200 204 230 243 226 221 218 203 188 189 205 211 201 222 240 219 218 218 215 217 217 216 217 220 225 227 226 226 229 230 230 231 237 243 237 229 221 206 202 201 198 197 194 193 196 198 195 195 198 196 195 197 194 195 199 199 202 202 199 202 206 202 200 199 192 184 182 183 185 186 187 187 188 188 187
200 168 211 270 204 211 212 231 252 269 246 208 217 259 244 220 216 213 206 196 196 208 210 203 214 250 239 241 227 221 223 219 217 218 219 222 226 228 228 229 230 229 229 233 237 235 229 223 212 207 207 204 199 196 196 196 198 200 198 197 198 199 200 201 202 203 201 203 203 196 194 197 194 191 193 191 186 186 187 186 187 188 190 190 190 192
196 188 198 163 176 201 223 252 271 266 243 230 2 351 208 214 213 215 214 209 205 201 197 202 213 250 269 259 225 220 224 219 219 220 219 219 222 226 229 230 231 232 233 235 236 236 229 220 214 213 214 212 206 201 200 200 198 201 203 199 198 201 204 205 205 204 202 201 201 196 193 197 195 192 190 190 192 192 189 188 190 192 192 192 192 194
202 216 230 217 219 230 243 262 273 244 239 260 334 22 112 110 100 210 220 211 204 204 208 207 208 235 277 264 225 220 222 221 227 227 223 220 220 223 227 230 232 234 235 237 239 241 237 226 218 217 221 221 215 209 205 204 201 201 205 204 201 202 206 207 205 205 204 202 202 200 199 201 202 199 192 189 193 193 192 193 194 194 195 195 194 195
212 229 240 237 242 246 249 260 245 228 245 254 266 270 110 114 123 195 219 210 204 219 237 223 209 214 286 288 258 242 238 243 257 249 234 226 223 223 225 228 232 234 235 237 238 240 241 236 229 226 231 225 219 216 210 207 205 203 206 209 206 203 205 208 207 206 205 206 208 205 205 207 208 205 195 190 192 191 197 200 197 196 197 198 197 198
213 226 228 230 245 251 240 226 219 233 220 194 224 197 148 140 170 194 206 204 203 245 262 248 220 213 277 340 320 252 256 290 310 267 241 231 226 225 225 227 230 233 235 237 238 238 238 238 234 230 231 226 220 220 215 208 207 207 207 210 212 208 207 207 208 208 208 210 210 208 208 210 210 208 196 191 195 195 201 203 198 199 200 199 199 202
223 225 223 226 241 248 237 234 239 243 218 188 206 183 163 162 181 190 200 200 196 265 286 277 223 212 220 269 304 298 285 290 288 266 248 239 233 229 227 226 229 233 235 237 238 237 235 235 233 226 225 224 221 220 218 212 209 210 209 209 213 213 209 206 206 210 212 212 210 208 208 209 211 210 199 193 200 201 202 202 199 199 200 200 202 206
235 224 216 216 230 246 247 244 232 226 223 215 215 178 159 144 160 196 215 211 224 247 275 272 203 207 227 257 282 294 298 298 278 260 261 256 247 238 231 228 228 230 234 236 238 237 234 233 234 229 223 221 220 221 222 217 213 213 212 211 213 215 213 209 206 208 213 213 211 208 207 207 207 207 202 199 202 202 201 201 199 198 199 201 204 206
245 216 210 210 224 244 254 246 221 217 224 229 231 201 170 138 118 210 250 253 238 244 249 198 182 208 239 256 275 285 297 300 280 276 270 251 250 245 234 230 230 229 231 235 237 236 234 233 236 237 231 224 220 222 225 222 218 216 215 214 213 214 216 213 208 208 212 213 212 209 208 207 206 205 203 202 206 206 201 198 199 200 197 198 201 202
214 193 205 211 219 231 239 235 222 224 227 233 246 250 235 202 153 185 214 200 201 212 203 183 183 223 237 237 270 276 284 289 285 289 273 244 244 244 232 226 228 229 229 232 234 235 233 233 237 240 236 229 222 222 226 226 223 219 218 218 215 214 216 214 211 210 210 211 211 209 207 207 206 205 204 204 208 208 202 197 200 204 201 200 204 203
216 189 198 206 213 221 225 214 215 225 218 213 234 242 239 226 183 152 158 195 214 204 209 203 212 238 236 245 266 270 276 285 285 284 279 264 246 239 231 223 224 227 228 230 231 232 232 232 235 238 237 233 225 222 225 227 226 223 220 219 217 216 216 215 213 211 209 210 211 209 208 207 207 207 206 206 209 211 209 204 204 206 206 207 209 208
205 182 189 203 217 227 221 207 205 218 216 195 198 203 189 187 196 161 148 203 302 335 243 221 230 239 237 248 261 266 274 280 282 280 282 279 250 231 228 225 224 225 226 228 229 230 231 232 233 234 235 234 228 224 225 226 228 227 224 222 219 216 216 215 214 212 209 209 209 207 206 207 207 207 208 209 210 212 214 213 212 210 208 210 213 212
126 108 154 206 224 219 204 207 213 221 230 208 188 180 184 199 221 215 198 60 58 350 243 223 235 239 229 238 256 262 269 273 277 279 278 273 246 221 220 222 226 226 224 226 228 229 230 232 234 233 233 233 226 222 225 227 230 229 227 225 222 217 215 214 214 213 211 209 207 205 205 208 209 208 209 211 212 214 215 216 217 216 213 213 216 216
153 122 89 124 196 192 183 198 217 206 209 223 194 182 189 201 210 210 204 97 139 231 268 243 247 241 231 240 255 260 268 275 280 284 285 279 257 232 224 223 226 228 225 223 225 226 226 228 232 234 233 232 228 223 223 227 230 228 226 225 223 218 215 215 216 215 213 210 206 202 202 206 209 209 210 213 216 218 217 217 218 218 217 217 218 220
188 167 96 90 148 172 177 194 208 191 191 217 178 163 172 181 189 201 203 188 174 178 248 270 273 243 232 243 257 258 262 275 287 292 293 289 277 253 238 234 231 231 229 225 223 223 222 224 231 235 234 232 229 225 223 224 226 224 222 223 223 217 212 213 215 215 214 212 208 202 201 204 207 210 213 216 220 222 220 218 218 218 219 220 221 221
199 177 138 103 139 159 173 195 205 203 210 219 182 167 168 181 188 197 207 202 182 161 168 172 268 251 236 243 256 255 258 272 290 296 296 297 292 268 242 241 239 235 233 228 223 221 219 217 222 228 231 232 231 228 225 222 222 222 219 220 221 218 213 211 212 213 214 213 211 206 202 202 206 210 214 218 221 222 221 220 220 219 221 222 222 223
190 166 165 139 133 140 144 162 169 186 218 227 200 188 178 194 193 181 196 211 206 200 183 170 242 260 249 248 257 260 265 272 284 295 296 297 295 280 250 245 246 243 240 233 226 226 224 220 218 218 219 222 226 229 228 223 219 220 218 217 219 219 216 213 212 212 213 214 214 212 206 204 207 210 214 219 221 221 221 222 222 222 224 224 225 227
188 164 172 147 131 145 140 140 152 168 198 204 195 198 215 220 214 206 205 208 199 198 209 198 248 273 261 254 261 268 270 270 279 291 293 293 289 277 261 255 251 247 248 245 237 235 234 231 230 229 225 222 222 226 231 227 220 216 216 216 218 218 215 214 213 213 214 214 215 215 212 209 209 211 215 218 220 221 220 222 224 225 226 227 229 231
208 235 188 122 131 157 161 162 163 170 190 194 194 220 229 228 238 240 240 215 192 198 206 191 242 277 268 258 266 276 273 272 277 282 292 303 299 282 270 273 268 254 246 247 247 245 243 238 237 238 237 233 229 227 229 230 226 219 214 215 219 220 216 214 215 216 216 216 215 216 216 215 213 214 216 218 220 222 222 223 224 226 227 228 229 233
246 248 223 145 117 135 158 167 170 175 185 187 205 240 243 240 234 235 231 213 204 211 206 191 239 277 279 266 271 276 272 274 275 276 292 314 312 290 276 281 287 278 259 247 244 245 247 246 243 242 242 242 239 233 227 226 226 223 219 216 218 222 220 217 218 219 219 218 217 217 217 217 217 216 217 219 221 222 224 225 225 226 227 228 230 234
251 233 225 201 167 165 174 177 182 187 192 203 222 242 263 251 231 226 214 209 215 218 208 212 266 291 284 264 262 263 262 272 277 277 291 310 308 288 273 271 278 284 284 272 257 248 244 244 246 247 247 247 246 241 235 230 225 221 221 220 219 222 224 222 221 222 222 222 221 220 220 219 220 220 220 221 223 224 225 225 226 226 226 228 233 236
224 215 238 231 223 205 187 177 183 199 203 228 244 266 275 252 238 232 218 214 222 223 224 240 278 289 279 263 251 248 263 279 280 280 290 302 303 294 282 271 267 273 280 282 277 267 255 247 247 249 250 251 249 244 240 238 232 223 219 220 221 223 226 227 225 224 223 223 223 223 223 222 221 222 223 224 224 226 227 227 225 226 227 230 234 238
149 357 266 239 236 221 198 190 292 274 245 269 288 311 299 254 238 233 230 232 225 217 232 256 272 278 281 270 256 263 282 288 281 283 294 301 304 304 298 285 271 270 271 269 268 268 265 259 255 254 253 254 255 248 241 239 238 230 222 218 219 222 226 228 228 226 224 224 224 224 224 225 224 224 224 225 226 226 227 227 225 225 227 230 234 238
168 337 300 246 234 223 215 225 267 265 265 273 280 307 315 266 237 232 234 238 226 220 249 281 259 273 276 262 271 284 292 295 293 297 301 302 306 310 308 295 279 268 259 252 249 251 256 259 259 259 257 254 255 254 246 240 238 234 229 224 218 219 224 227 228 227 225 224 223 223 225 226 226 225 224 225 226 225 226 226 224 224 226 229 234 238
225 210 129 214 203 194 208 228 254 264 269 273 277 295 310 281 242 234 236 237 235 245 268 272 253 258 258 259 270 279 285 302 311 310 306 302 304 311 311 303 284 256 241 241 245 247 251 254 254 255 256 253 250 250 250 244 238 235 235 232 224 218 221 225 227 227 226 225 223 222 223 226 227 226 225 224 225 225 225 225 225 225 227 230 234 238
216 188 152 154 162 172 199 229 265 283 292 306 300 299 306 284 241 231 235 236 240 248 254 253 249 252 257 259 260 268 285 301 306 306 307 304 301 301 303 305 289 251 237 244 253 255 258 258 256 255 252 250 247 245 245 244 237 234 235 234 230 225 222 222 225 226 226 226 226 223 222 224 225 226 224 223 224 224 224 225 227 229 230 231 235 239
203 185 168 167 179 198 216 243 272 291 309 318 311 308 313 283 236 225 231 236 239 245 249 249 253 263 265 256 257 270 285 293 296 300 304 304 302 298 293 295 290 265 251 256 260 262 267 268 268 271 267 259 251 245 243 240 233 230 231 231 229 229 227 223 222 224 226 227 227 226 224 223 226 226 224 223 224 224 224 225 227 229 231 232 234 238
198 194 186 182 196 211 218 242 265 284 301 303 291 319 336 305 226 214 222 231 233 238 246 251 262 276 269 256 264 275 279 284 291 296 299 300 303 302 294 286 282 274 266 264 265 269 277 280 279 282 286 282 272 258 249 240 230 225 226 228 227 229 230 227 222 221 223 227 228 227 225 224 225 226 224 224 224 224 224 225 226 228 230 231 234 237
201 205 199 192 202 213 214 233 254 267 283 274 235 291 329 310 210 206 214 228 232 230 239 256 274 284 278 271 273 273 275 285 291 294 299 302 303 304 299 288 279 272 265 261 262 267 275 282 285 289 294 298 295 287 268 249 233 224 223 226 228 229 230 229 225 221 221 224 227 229 227 226 226 226 225 224 224 224 225 225 227 229 230 232 234 236
204 205 202 198 208 217 212 219 247 256 245 241 240 264 299 216 217 234 250 252 244 232 232 256 276 279 281 279 274 275 282 290 295 300 305 304 300 299 296 290 280 271 264 260 259 264 272 278 280 287 298 305 306 304 292 266 245 233 227 225 228 230 230 229 229 228 225 223 225 228 229 228 227 227 226 226 226 226 225 224 226 229 231 234 235 238
210 209 207 204 206 209 200 195 205 231 229 245 264 274 279 232 223 244 265 254 236 227 236 271 283 283 287 285 282 288 294 297 305 310 307 300 295 291 290 289 281 271 266 261 259 264 273 277 276 279 289 299 308 310 303 284 260 246 238 232 231 232 231 230 231 231 229 225 224 227 230 230 229 228 227 226 227 228 226 225 225 227 230 234 237 240
225 221 214 207 202 200 197 199 209 215 204 231 260 271 271 249 236 252 266 243 218 238 283 308 313 310 311 307 302 303 302 304 310 309 301 295 291 288 288 287 281 272 267 264 263 267 274 277 277 280 287 295 302 306 303 295 278 259 247 241 238 236 236 235 234 233 231 229 226 226 229 229 227 226 226 225 225 227 228 227 227 229 231 235 240 243
227 228 224 219 208 200 200 198 199 209 205 213 234 248 245 231 225 238 257 250 247 292 314 325 328 325 325 318 310 305 302 303 305 301 297 293 290 288 286 284 281 274 268 266 266 269 276 279 280 283 288 292 295 299 301 298 288 274 259 248 242 240 239 239 237 234 233 232 228 226 228 229 227 223 222 222 222 224 227 228 228 230 233 235 240 245
214 223 225 224 213 203 204 199 187 202 212 206 212 221 207 203 206 220 250 262 279 311 321 323 322 325 326 315 307 304 301 302 304 303 302 301 296 293 288 285 283 277 270 268 267 271 277 281 284 289 292 292 293 296 300 300 293 282 269 256 247 242 239 239 238 237 235 235 234 231 230 233 233 230 225 223 221 221 224 226 225 227 232 236 238 244
192 207 218 221 217 208 206 205 204 213 216 207 206 207 200 203 215 225 241 267 289 303 312 315 315 320 320 313 308 304 302 304 308 308 310 310 307 302 295 288 285 281 275 271 270 275 280 282 285 290 292 291 291 293 298 300 293 282 271 259 250 244 240 238 237 238 238 237 238 238 235 232 232 235 236 233 228 224 224 225 222 222 231 238 240 244
199 206 215 220 218 206 199 202 210 218 217 211 208 209 208 213 225 235 248 271 285 293 301 307 309 315 316 310 305 302 301 306 310 309 311 314 314 312 305 295 287 283 281 278 275 278 282 283 286 289 291 291 289 292 298 298 289 283 275 261 250 245 241 237 235 236 237 237 237 240 241 235 228 231 239 240 234 228 228 229 226 226 235 243 246 248
219 214 206 208 209 202 199 204 212 215 215 212 208 210 215 220 229 241 256 269 277 285 295 301 304 308 308 302 298 298 300 307 310 308 311 316 319 319 315 305 293 284 281 281 282 282 283 284 286 287 289 289 288 294 300 290 273 292 303 275 252 243 238 236 236 235 236 237 237 239 243 242 233 230 236 238 233 229 229 230 229 230 236 242 245 248
220 215 208 204 203 197 194 198 206 221 225 222 217 217 224 231 237 246 256 262 270 281 291 297 301 304 302 296 294 296 299 302 305 306 309 315 320 321 317 308 296 285 279 279 282 285 284 285 286 286 287 287 288 296 302 278 251 267 315 335 282 242 235 234 235 234 234 235 236 237 240 242 236 231 232 234 231 229 228 228 227 230 235 240 243 248
232 225 218 208 204 202 200 205 224 245 244 235 229 227 231 238 243 251 258 265 274 282 287 293 299 300 296 292 292 294 298 298 298 300 303 309 315 318 314 304 296 289 282 276 275 279 284 286 288 286 288 292 293 300 310 298 265 267 292 320 307 248 239 235 233 233 234 235 236 235 235 235 234 232 232 232 231 229 228 227 226 226 232 238 243 248
231 230 227 219 218 222 225 228 239 251 246 230 224 228 235 245 254 261 267 271 276 283 289 294 296 294 289 288 291 294 297 297 296 296 299 304 310 311 307 303 301 297 287 272 266 271 278 286 292 291 291 299 301 304 314 313 289 273 281 292 284 263 246 234 231 233 235 236 234 231 227 226 227 227 226 228 232 231 228 228 227 228 233 240 246 249
223 225 232 236 234 231 235 238 241 244 235 224 223 233 245 257 267 272 276 279 284 291 297 300 300 296 291 291 294 296 296 297 297 296 297 301 304 303 301 301 302 299 289 272 261 265 274 286 294 296 300 307 310 310 315 316 300 277 268 267 267 264 243 224 223 226 228 230 230 229 226 224 225 224 222 225 233 235 230 228 231 236 241 246 248 248
219 215 222 230 228 222 224 228 231 236 238 237 242 252 258 264 273 278 282 289 296 302 306 307 307 304 299 296 296 296 295 296 297 297 299 300 298 296 295 296 298 296 289 275 262 260 268 282 295 304 312 318 322 321 317 319 312 288 269 252 244 248 241 223 220 221 221 222 222 222 220 219 220 222 222 223 226 230 231 234 240 245 246 245 244 243
219 215 218 222 222 219 219 220 227 235 242 245 247 253 262 271 277 282 287 293 301 306 308 307 306 306 303 299 296 295 294 295 297 299 301 299 295 292 291 291 293 293 286 279 272 266 265 273 291 312 321 322 330 341 341 349 1 335 269 240 231 236 238 232 227 225 222 220 219 220 220 219 221 224 225 225 227 233 234 230 231 233 232 227 224 220
212 216 218 217 215 213 214 220 227 232 239 245 248 256 269 274 276 281 288 293 300 306 309 308 305 302 300 297 296 294 293 295 298 300 299 296 292 290 288 287 287 287 283 277 273 266 263 265 279 311 321 320 337 6 17 31 52 76 123 169 196 217 225 225 222 216 206 199 202 209 213 214 214 216 218 221 227 231 222 202 194 198 201 194 184 177
217 219 216 217 223 228 229 234 241 243 247 251 256 265 272 272 273 281 289 295 299 303 307 308 305 300 297 296 295 294 294 295 297 297 296 292 286 283 282 283 284 284 280 274 268 262 258 252 249 282 298 294 22 32 57 81 86 94 110 124 127 126 110 93 97 118 132 135 145 158 165 168 171 174 181 192 202 204 192 172 162 161 165 166 163 161
216 215 216 225 237 245 244 245 251 255 258 261 263 265 267 268 274 282 288 293 298 302 304 305 303 299 296 296 295 295 295 295 296 295 293 288 281 278 276 276 278 279 278 276 268 259 249 236 226 222 161 146 115 84 110 121 113 107 113 118 116 105 91 90 96 103 107 111 117 128 140 147 148 148 150 155 160 166 170 167 161 158 158 161 165 168
Height
3161 3162 3162 3162 3162 3163 3165 3165 3165 3166 3166 3166 3167 3167 3168 3168 3167 3166 3167 3167 3168 3169 3169 3169 3170 3172 3172 3174 3174 3175 3175 3175 3176 3177 3177 3178 3179 3181 3182 3182 3183 3184 3185 3186 3187 3188 3188 3189 3189 3190 3191 3192 3193 3194 3194 3195 3196 3196 3197 3198 3199 3200 3201 3202 3203 3203 3204 3205 3206 3207 3207 3208 3209 3210 3210 3211 3211 3211 3212 3214 3215 3216 3217 3217 3219 3220
3160 3161 3161 3162 3163 3165 3166 3166 3166 3166 3166 3166 3166 3166 3167 3167 3167 3167 3167 3167 3168 3169 3169 3169 3170 3170 3172 3173 3174 3174 3174 3175 3176 3176 3177 3178 3179 3180 3181 3182 3184 3185 3185 3185 3186 3187 3188 3188 3189 3189 3191 3192 3193 3194 3195 3195 3196 3197 3197 3198 3199 3200 3201 3202 3203 3204 3205 3206 3206 3207 3208 3208 3209 3210 3211 3211 3211 3212 3213 3214 3215 3216 3217 3218 3219 3220
3160 3160 3161 3163 3165 3166 3166 3166 3166 3166 3165 3165 3165 3164 3165 3167 3167 3167 3167 3168 3168 3168 3169 3168 3168 3169 3171 3172 3172 3173 3173 3174 3175 3176 3177 3177 3178 3179 3180 3181 3183 3184 3185 3185 3186 3187 3188 3189 3188 3189 3190 3191 3193 3194 3195 3196 3196 3197 3198 3198 3199 3200 3201 3202 3203 3204 3205 3206 3206 3207 3208 3209 3209 3210 3211 3211 3211 3212 3213 3214 3215 3216 3217 3218 3219 3220
3160 3161 3162 3164 3165 3165 3165 3165 3165 3165 3164 3164 3164 3163 3164 3166 3167 3167 3167 3167 3168 3168 3168 3168 3168 3169 3169 3170 3170 3171 3172 3173 3174 3175 3175 3176 3177 3178 3179 3181 3182 3183 3185 3185 3185 3186 3188 3188 3188 3189 3190 3191 3192 3194 3195 3196 3196 3197 3198 3198 3199 3200 3201 3202 3203 3204 3205 3206 3206 3207 3208 3209 3209 3210 3211 3211 3212 3213 3214 3215 3216 3217 3217 3218 3219 3220
3160 3161 3162 3163 3163 3164 3164 3164 3164 3164 3163 3163 3163 3163 3164 3165 3166 3167 3167 3167 3168 3168 3168 3168 3168 3168 3168 3168 3168 3169 3170 3171 3172 3173 3174 3175 3176 3177 3177 3179 3181 3182 3184 3184 3185 3186 3187 3188 3189 3189 3189 3190 3192 3193 3194 3196 3196 3197 3198 3199 3199 3200 3201 3202 3203 3204 3205 3206 3206 3207 3208 3209 3209 3210 3211 3212 3212 3213 3214 3215 3216 3217 3218 3218 3219 3220
3159 3160 3160 3161 3161 3162 3163 3163 3163 3163 3163 3163 3163 3163 3163 3164 3165 3166 3167 3167 3167 3168 3168 3168 3168 3167 3167 3167 3167 3168 3168 3169 3170 3171 3172 3173 3174 3175 3175 3177 3179 3181 3182 3183 3184 3185 3187 3188 3188 3188 3189 3190 3191 3193 3194 3195 3196 3197 3198 3199 3200 3200 3201 3202 3203 3204 3205 3206 3207 3208 3209 3210 3210 3211 3212 3212 3212 3213 3214 3215 3216 3217 3218 3218 3219 3220
3159 3159 3159 3159 3160 3161 3162 3162 3162 3163 3163 3163 3163 3162 3163 3163 3164 3165 3166 3166 3167 3167 3167 3168 3168 3167 3166 3166 3167 3167 3167 3168 3169 3169 3171 3172 3172 3173 3174 3175 3177 3179 3181 3182 3183 3184 3185 3186 3187 3188 3188 3189 3191 3192 3193 3194 3196 3197 3198 3199 3199 3200 3200 3201 3203 3204 3205 3206 3207 3208 3209 3210 3210 3211 3211 3211 3212 3212 3213 3214 3215 3216 3217 3218 3219 3219
3158 3159 3159 3159 3160 3160 3161 3161 3162 3162 3162 3163 3162 3162 3162 3162 3163 3164 3165 3166 3166 3167 3167 3167 3167 3167 3165 3165 3165 3165 3166 3166 3167 3167 3168 3170 3170 3171 3172 3173 3175 3177 3179 3180 3182 3183 3184 3185 3186 3187 3188 3189 3190 3192 3193 3194 3195 3196 3197 3198 3199 3200 3200 3201 3202 3203 3205 3206 3207 3207 3208 3209 3210 3210 3210 3211 3211 3212 3213 3214 3215 3216 3216 3217 3218 3219
3158 3159 3159 3159 3160 3160 3161 3161 3161 3161 3162 3162 3162 3162 3162 3162 3163 3164 3165 3166 3167 3167 3166 3166 3167 3167 3165 3164 3164 3164 3165 3165 3165 3166 3167 3167 3168 3169 3170 3172 3173 3175 3177 3179 3180 3181 3183 3184 3185 3186 3187 3189 3190 3191 3192 3193 3194 3195 3196 3197 3198 3199 3200 3200 3201 3203 3204 3205 3206 3207 3207 3208 3209 3209 3210 3210 3211 3212 3213 3214 3214 3215 3216 3217 3217 3218
3158 3158 3159 3159 3159 3159 3160 3160 3160 3161 3161 3161 3162 3162 3162 3162 3163 3164 3165 3166 3167 3167 3166 3165 3166 3167 3165 3163 3164 3164 3164 3165 3165 3165 3166 3166 3167 3168 3169 3170 3171 3173 3175 3176 3178 3180 3181 3182 3184 3185 3186 3187 3189 3190 3191 3192 3193 3194 3195 3196 3197 3198 3199 3199 3200 3202 3203 3204 3205 3206 3207 3207 3208 3209 3209 3210 3211 3212 3213 3213 3214 3215 3216 3216 3217 3218
3158 3158 3158 3158 3158 3158 3159 3160 3160 3161 3161 3161 3161 3161 3161 3162 3163 3164 3165 3166 3168 3167 3165 3165 3165 3166 3165 3163 3163 3164 3164 3164 3164 3165 3165 3165 3165 3166 3167 3168 3169 3171 3172 3174 3176 3178 3180 3181 3182 3183 3184 3186 3187 3189 3189 3191 3192 3193 3194 3195 3196 3197 3198 3198 3199 3200 3202 3203 3204 3205 3206 3207 3207 3208 3209 3210 3211 3211 3212 3214 3214 3215 3215 3216 3217 3218
3157 3157 3157 3157 3157 3158 3158 3159 3160 3160 3161 3161 3161 3161 3161 3163 3164 3166 3167 3168 3169 3168 3165 3164 3164 3166 3166 3163 3163 3163 3164 3164 3164 3164 3164 3164 3164 3164 3165 3166 3167 3169 3170 3172 3174 3176 3178 3179 3180 3181 3182 3184 3185 3187 3188 3189 3191 3192 3192 3194 3195 3196 3196 3197 3198 3199 3200 3202 3203 3204 3205 3206 3207 3208 3209 3209 3210 3211 3212 3213 3214 3214 3215 3216 3217 3218
3156 3156 3156 3156 3157 3157 3158 3158 3159 3159 3160 3161 3161 3161 3162 3164 3167 3169 3169 3169 3168 3166 3165 3164 3164 3165 3164 3162 3162 3163 3163 3163 3163 3163 3163 3163 3163 3163 3163 3164 3165 3167 3168 3170 3171 3173 3175 3177 3178 3180 3181 3182 3184 3185 3187 3188 3189 3190 3191 3192 3193 3194 3195 3197 3198 3198 3199 3201 3202 3203 3204 3205 3206 3207 3208 3209 3210 3211 3212 3212 3213 3214 3215 3216 3217 3218
3154 3154 3155 3156 3156 3157 3157 3157 3158 3158 3159 3159 3160 3160 3161 3164 3168 3170 3169 3169 3167 3165 3165 3164 3164 3164 3162 3161 3162 3162 3162 3162 3162 3162 3162 3161 3161 3161 3161 3162 3164 3165 3166 3168 3169 3171 3173 3175 3177 3179 3180 3181 3182 3184 3185 3186 3188 3189 3190 3191 3192 3193 3194 3195 3196 3197 3198 3199 3201 3202 3203 3204 3206 3207 3208 3209 3210 3210 3211 3212 3213 3214 3215 3215 3216 3217
3153 3153 3154 3155 3156 3156 3157 3157 3157 3157 3158 3158 3159 3159 3160 3161 3163 3165 3166 3166 3165 3164 3164 3164 3163 3162 3160 3161 3161 3160 3161 3161 3161 3161 3161 3160 3160 3160 3160 3161 3162 3163 3165 3166 3167 3169 3171 3174 3176 3177 3179 3180 3181 3183 3184 3185 3186 3187 3189 3190 3191 3192 3193 3194 3195 3196 3197 3198 3199 3200 3202 3203 3205 3206 3207 3208 3209 3210 3211 3211 3212 3213 3214 3215 3216 3216
3153 3152 3153 3154 3155 3156 3157 3157 3157 3157 3157 3157 3158 3158 3158 3159 3159 3161 3162 3162 3162 3162 3162 3162 3161 3160 3159 3160 3160 3160 3160 3160 3160 3160 3160 3159 3159 3158 3159 3159 3160 3161 3163 3164 3166 3167 3170 3172 3174 3176 3177 3179 3180 3181 3182 3183 3185 3186 3187 3188 3190 3190 3191 3192 3194 3195 3196 3197 3198 3199 3200 3202 3203 3205 3206 3207 3208 3209 3210 3211 3212 3213 3214 3215 3215 3216
3152 3152 3152 3153 3155 3156 3156 3156 3156 3157 3157 3157 3157 3158 3158 3158 3159 3159 3160 3161 3161 3162 3161 3160 3159 3159 3159 3159 3159 3159 3159 3159 3159 3159 3158 3158 3158 3158 3158 3158 3159 3160 3162 3163 3164 3166 3168 3170 3172 3174 3175 3177 3178 3179 3181 3182 3184 3185 3186 3187 3188 3189 3190 3191 3192 3193 3194 3195 3196 3197 3199 3200 3202 3204 3205 3206 3207 3208 3209 3210 3211 3212 3213 3214 3215 3216
3152 3152 3153 3153 3154 3155 3156 3156 3156 3157 3157 3157 3157 3158 3158 3158 3159 3159 3160 3161 3162 3162 3160 3159 3159 3159 3159 3158 3158 3158 3158 3158 3158 3157 3157 3157 3157 3157 3156 3157 3158 3158 3160 3162 3163 3165 3167 3169 3170 3172 3174 3175 3176 3178 3179 3181 3183 3183 3184 3185 3186 3187 3188 3190 3191 3192 3193 3194 3195 3196 3197 3199 3201 3203 3204 3205 3206 3207 3208 3209 3210 3211 3212 3213 3214 3215
3152 3152 3153 3153 3153 3154 3155 3156 3156 3156 3157 3157 3157 3157 3158 3158 3158 3158 3159 3160 3162 3162 3161 3159 3158 3158 3158 3157 3157 3157 3157 3157 3157 3156 3156 3156 3156 3156 3155 3155 3156 3156 3157 3159 3161 3163 3164 3166 3168 3169 3171 3173 3174 3176 3177 3179 3181 3182 3182 3183 3184 3186 3187 3188 3189 3190 3191 3192 3193 3195 3196 3198 3200 3201 3203 3204 3205 3206 3207 3209 3210 3211 3212 3213 3213 3214
3151 3152 3153 3153 3153 3153 3154 3155 3156 3156 3156 3157 3157 3157 3157 3157 3158 3158 3159 3159 3159 3161 3161 3159 3158 3157 3156 3156 3156 3156 3156 3156 3156 3155 3155 3155 3155 3155 3154 3154 3154 3154 3155 3156 3159 3160 3162 3164 3166 3168 3169 3171 3172 3174 3175 3177 3178 3180 3181 3182 3182 3184 3185 3186 3187 3189 3190 3191 3192 3193 3195 3196 3198 3200 3201 3202 3204 3205 3206 3207 3208 3210 3211 3211 3212 3213
3150 3150 3152 3153 3153 3154 3154 3155 3155 3155 3155 3156 3156 3156 3157 3157 3157 3158 3158 3158 3158 3160 3160 3160 3159 3156 3155 3155 3155 3155 3155 3155 3155 3154 3154 3154 3154 3154 3154 3153 3153 3153 3153 3154 3155 3156 3157 3158 3160 3163 3166 3169 3170 3171 3173 3174 3176 3178 3180 3180 3181 3182 3183 3184 3185 3187 3188 3190 3191 3192 3193 3195 3196 3198 3200 3201 3202 3203 3205 3206 3207 3208 3209 3210 3211 3212
3149 3150 3151 3152 3153 3153 3154 3154 3154 3155 3155 3155 3155 3156 3156 3156 3156 3157 3157 3157 3157 3158 3158 3159 3158 3155 3154 3155 3154 3154 3154 3154 3154 3153 3153 3153 3153 3153 3153 3152 3152 3152 3153 3153 3153 3154 3155 3156 3156 3157 3159 3163 3166 3169 3170 3172 3174 3176 3178 3179 3180 3180 3181 3182 3184 3185 3187 3188 3189 3191 3192 3194 3195 3196 3198 3199 3200 3202 3203 3205 3206 3207 3208 3209 3210 3210
3149 3149 3150 3152 3152 3153 3153 3153 3153 3154 3155 3155 3155 3155 3155 3155 3155 3155 3156 3155 3156 3157 3157 3157 3156 3153 3153 3154 3153 3153 3153 3153 3153 3152 3152 3152 3152 3153 3152 3151 3151 3152 3152 3152 3153 3154 3156 3158 3160 3159 3159 3160 3162 3165 3168 3170 3172 3173 3176 3178 3178 3179 3179 3181 3182 3184 3185 3186 3188 3189 3191 3192 3193 3195 3196 3197 3199 3200 3202 3203 3205 3206 3207 3208 3209 3209
3148 3149 3150 3151 3152 3152 3152 3152 3153 3153 3154 3154 3154 3154 3154 3154 3154 3154 3154 3154 3155 3156 3156 3157 3156 3153 3152 3153 3153 3152 3152 3152 3152 3152 3152 3152 3152 3152 3152 3151 3150 3150 3152 3152 3152 3153 3154 3157 3159 3161 3161 3162 3161 3162 3164 3168 3170 3172 3173 3175 3177 3178 3178 3179 3181 3182 3183 3184 3186 3187 3189 3190 3192 3193 3194 3195 3197 3199 3200 3202 3203 3204 3205 3207 3208 3208
3147 3148 3149 3150 3152 3153 3153 3153 3152 3153 3153 3153 3153 3154 3154 3154 3154 3154 3154 3154 3154 3154 3154 3155 3154 3152 3151 3152 3152 3152 3152 3151 3151 3151 3151 3151 3151 3151 3151 3151 3149 3149 3150 3151 3152 3152 3153 3154 3156 3157 3159 3161 3162 3161 3161 3163 3166 3170 3172 3173 3175 3177 3178 3178 3179 3180 3181 3183 3184 3185 3187 3188 3189 3191 3192 3194 3195 3197 3199 3200 3201 3203 3204 3205 3206 3206
3146 3147 3148 3149 3151 3152 3152 3152 3151 3151 3152 3152 3152 3152 3152 3153 3153 3153 3153 3153 3153 3153 3153 3153 3152 3151 3151 3151 3151 3151 3151 3150 3150 3151 3151 3151 3151 3150 3150 3150 3148 3147 3148 3149 3150 3151 3151 3152 3153 3154 3155 3157 3159 3160 3161 3161 3163 3166 3169 3171 3173 3175 3177 3177 3178 3178 3180 3181 3182 3183 3184 3186 3187 3189 3190 3192 3194 3195 3197 3198 3199 3201 3202 3203 3204 3204
3145 3145 3146 3147 3148 3148 3149 3150 3150 3150 3150 3151 3151 3151 3151 3151 3151 3152 3152 3152 3152 3152 3152 3151 3151 3151 3150 3150 3150 3151 3150 3150 3150 3150 3150 3150 3150 3150 3149 3149 3147 3146 3146 3147 3148 3148 3148 3150 3151 3152 3153 3154 3155 3156 3159 3161 3162 3164 3166 3168 3171 3173 3175 3176 3177 3177 3178 3179 3180 3181 3182 3184 3185 3187 3189 3190 3192 3193 3195 3196 3197 3199 3200 3201 3201 3202
3144 3144 3145 3145 3146 3147 3148 3149 3149 3149 3149 3149 3149 3149 3149 3149 3149 3150 3150 3150 3151 3151 3151 3150 3150 3150 3150 3150 3150 3150 3150 3150 3149 3149 3149 3149 3149 3149 3148 3147 3146 3145 3145 3145 3146 3145 3145 3147 3148 3149 3150 3151 3151 3153 3155 3158 3161 3163 3164 3164 3167 3170 3172 3174 3175 3176 3176 3177 3178 3179 3180 3182 3183 3185 3187 3188 3190 3191 3192 3193 3195 3196 3198 3199 3199 3200
3143 3143 3144 3144 3144 3146 3147 3148 3148 3148 3148 3148 3148 3147 3147 3147 3147 3148 3148 3149 3149 3150 3149 3149 3149 3149 3149 3149 3149 3149 3149 3149 3149 3149 3148 3148 3148 3147 3147 3146 3145 3144 3143 3143 3143 3144 3144 3144 3145 3146 3146 3147 3148 3149 3151 3154 3157 3160 3162 3162 3163 3165 3168 3171 3172 3173 3174 3174 3175 3177 3179 3180 3181 3183 3184 3186 3187 3188 3190 3191 3192 3194 3195 3196 3197 3198
3141 3142 3143 3143 3143 3145 3146 3146 3147 3147 3146 3146 3146 3146 3146 3145 3145 3146 3147 3148 3148 3148 3148 3148 3148 3148 3148 3148 3148 3148 3148 3148 3148 3148 3147 3146 3146 3146 3145 3145 3144 3143 3142 3142 3141 3141 3141 3141 3141 3142 3143 3143 3145 3146 3148 3150 3153 3156 3159 3161 3162 3162 3164 3167 3169 3171 3172 3172 3173 3175 3177 3178 3179 3181 3182 3183 3184 3186 3187 3189 3190 3192 3193 3194 3195 3196
3140 3141 3142 3142 3143 3144 3145 3145 3145 3145 3145 3145 3145 3144 3144 3143 3143 3144 3145 3146 3147 3147 3147 3147 3147 3146 3147 3147 3147 3147 3147 3147 3147 3146 3145 3145 3145 3144 3144 3143 3143 3142 3141 3141 3140 3140 3139 3139 3139 3139 3139 3140 3142 3143 3145 3147 3150 3152 3155 3158 3160 3160 3161 3163 3165 3168 3169 3170 3172 3173 3174 3175 3177 3178 3179 3180 3182 3183 3185 3187 3188 3189 3190 3191 3192 3194
3139 3140 3141 3142 3142 3143 3144 3144 3144 3143 3143 3143 3143 3142 3142 3142 3141 3142 3144 3145 3145 3146 3146 3146 3146 3146 3146 3146 3146 3146 3146 3146 3145 3144 3143 3143 3143 3143 3142 3142 3142 3141 3141 3140 3139 3139 3138 3138 3138 3137 3137 3138 3139 3140 3141 3143 3145 3147 3150 3153 3156 3158 3159 3159 3161 3164 3167 3168 3170 3171 3172 3173 3174 3175 3177 3178 3179 3181 3182 3184 3185 3186 3188 3189 3190 3191
3138 3138 3139 3140 3141 3142 3142 3143 3142 3142 3142 3142 3141 3141 3141 3140 3140 3141 3143 3144 3144 3145 3145 3145 3145 3145 3145 3145 3145 3145 3144 3144 3144 3143 3142 3142 3141 3141 3140 3140 3140 3140 3140 3139 3138 3138 3137 3137 3137 3137 3136 3136 3136 3137 3138 3139 3140 3142 3146 3149 3152 3155 3156 3156 3157 3160 3163 3165 3167 3168 3169 3170 3171 3173 3174 3176 3177 3178 3179 3181 3182 3183 3185 3186 3188 3189
3136 3137 3138 3139 3140 3140 3141 3141 3141 3141 3141 3140 3140 3140 3140 3140 3141 3141 3142 3143 3143 3144 3144 3144 3144 3144 3144 3144 3144 3143 3143 3142 3142 3142 3141 3140 3140 3139 3138 3138 3138 3137 3137 3137 3136 3136 3136 3136 3136 3136 3136 3135 3135 3135 3135 3136 3137 3139 3141 3144 3147 3149 3151 3153 3154 3156 3158 3160 3163 3165 3166 3168 3169 3170 3172 3173 3175 3176 3176 3178 3179 3180 3182 3184 3185 3186
3134 3135 3136 3137 3138 3139 3139 3140 3141 3141 3140 3139 3139 3140 3140 3140 3141 3142 3142 3142 3142 3142 3143 3143 3144 3143 3143 3142 3142 3142 3141 3141 3141 3141 3140 3139 3137 3137 3136 3135 3135 3134 3134 3133 3134 3134 3135 3135 3135 3135 3134 3134 3134 3134 3134 3134 3136 3137 3138 3140 3142 3144 3146 3149 3151 3152 3152 3155 3158 3161 3163 3164 3166 3167 3169 3170 3172 3173 3173 3175 3176 3177 3179 3180 3181 3182
3133 3133 3134 3135 3136 3137 3137 3138 3139 3139 3138 3138 3138 3139 3139 3140 3141 3141 3141 3141 3141 3142 3142 3143 3142 3142 3141 3141 3140 3140 3140 3140 3139 3139 3138 3136 3135 3134 3133 3133 3132 3132 3131 3131 3131 3132 3133 3133 3133 3133 3132 3132 3133 3133 3133 3133 3134 3135 3136 3138 3139 3141 3142 3144 3146 3147 3147 3149 3153 3156 3159 3161 3163 3164 3166 3167 3169 3170 3171 3171 3172 3173 3174 3176 3177 3179
3132 3132 3132 3133 3134 3135 3135 3136 3136 3137 3136 3136 3137 3137 3138 3139 3139 3140 3140 3140 3141 3141 3141 3141 3141 3140 3140 3139 3139 3139 3138 3138 3138 3137 3135 3134 3133 3132 3131 3130 3130 3130 3129 3129 3130 3131 3131 3131 3131 3131 3131 3131 3131 3131 3131 3131 3131 3132 3133 3134 3135 3137 3138 3139 3141 3143 3144 3146 3149 3152 3154 3156 3157 3160 3162 3164 3165 3166 3166 3167 3168 3170 3171 3173 3174 3176
3129 3130 3130 3131 3132 3133 3134 3134 3135 3135 3135 3135 3135 3136 3137 3138 3138 3139 3139 3139 3140 3140 3140 3139 3139 3139 3138 3138 3137 3137 3136 3136 3136 3134 3133 3132 3131 3130 3129 3129 3128 3128 3128 3128 3128 3128 3129 3129 3129 3129 3129 3129 3129 3128 3128 3128 3128 3128 3128 3129 3130 3131 3133 3134 3136 3138 3141 3143 3145 3146 3147 3148 3150 3153 3156 3158 3160 3160 3161 3162 3164 3167 3169 3170 3171 3173
3127 3128 3129 3130 3130 3131 3132 3132 3133 3133 3133 3133 3134 3135 3135 3137 3137 3138 3138 3138 3138 3139 3138 3138 3137 3137 3137 3136 3136 3135 3134 3134 3133 3132 3131 3130 3129 3128 3127 3127 3126 3126 3126 3126 3126 3126 3126 3126 3126 3126 3126 3126 3126 3126 3125 3124 3124 3123 3123 3123 3124 3125 3127 3129 3132 3135 3137 3139 3141 3142 3143 3145 3148 3151 3153 3153 3154 3154 3155 3158 3161 3164 3166 3166 3168 3170
3124 3125 3126 3127 3128 3129 3130 3130 3131 3131 3132 3132 3133 3134 3134 3135 3136 3137 3137 3137 3137 3137 3137 3137 3136 3136 3136 3135 3135 3134 3132 3131 3131 3130 3129 3128 3127 3126 3126 3125 3124 3124 3124 3124 3124 3125 3124 3124 3124 3124 3124 3124 3124 3123 3122 3121 3119 3118 3118 3118 3118 3118 3121 3124 3127 3130 3132 3134 3135 3137 3138 3141 3145 3149 3151 3152 3153 3152 3152 3156 3159 3161 3162 3163 3165 3167
3122 3123 3124 3125 3126 3127 3128 3128 3129 3130 3130 3131 3132 3133 3134 3134 3135 3135 3135 3135 3136 3136 3136 3136 3135 3135 3134 3133 3133 3132 3130 3130 3129 3128 3127 3127 3126 3125 3124 3123 3123 3122 3122 3122 3122 3122 3122 3122 3122 3122 3122 3121 3121 3120 3119 3117 3116 3114 3113 3112 3111 3112 3115 3118 3121 3124 3126 3128 3131 3132 3134 3137 3141 3143 3146 3150 3152 3151 3151 3154 3158 3159 3159 3160 3162 3164
3121 3122 3122 3123 3125 3126 3126 3127 3128 3128 3129 3130 3131 3131 3132 3133 3132 3132 3133 3134 3135 3135 3135 3135 3134 3133 3132 3132 3131 3130 3129 3128 3128 3127 3126 3125 3124 3123 3122 3121 3121 3121 3121 3121 3121 3120 3120 3120 3120 3120 3120 3119 3118 3117 3116 3115 3113 3111 3109 3106 3106 3108 3111 3113 3115 3118 3121 3124 3127 3128 3130 3134 3138 3139 3141 3146 3149 3149 3149 3152 3155 3156 3157 3158 3159 3161
3121 3121 3122 3122 3123 3124 3125 3126 3126 3126 3127 3128 3129 3129 3130 3130 3130 3131 3132 3133 3133 3133 3133 3133 3132 3132 3131 3130 3129 3128 3127 3127 3126 3125 3125 3124 3123 3122 3121 3120 3119 3119 3119 3119 3119 3119 3118 3118 3118 3118 3118 3117 3116 3115 3113 3112 3110 3108 3106 3104 3104 3106 3108 3110 3111 3114 3116 3119 3122 3124 3127 3130 3134 3136 3139 3143 3146 3147 3148 3150 3152 3153 3154 3155 3157 3159
3120 3121 3121 3121 3122 3122 3123 3123 3123 3124 3125 3126 3127 3127 3128 3128 3129 3130 3130 3131 3131 3131 3131 3131 3131 3130 3129 3128 3127 3126 3126 3125 3124 3124 3123 3123 3123 3121 3120 3119 3118 3118 3118 3118 3118 3117 3117 3117 3117 3117 3116 3115 3114 3113 3111 3109 3107 3106 3104 3104 3104 3105 3106 3107 3108 3110 3112 3114 3118 3121 3124 3127 3130 3133 3136 3140 3143 3144 3146 3148 3149 3151 3152 3153 3155 3156
3118 3119 3119 3120 3120 3120 3120 3121 3121 3122 3123 3124 3125 3126 3127 3128 3128 3128 3129 3129 3129 3129 3129 3129 3129 3128 3127 3126 3125 3124 3124 3123 3123 3122 3122 3122 3121 3120 3119 3118 3117 3117 3117 3117 3117 3116 3116 3116 3116 3115 3115 3114 3112 3110 3108 3106 3105 3104 3103 3103 3103 3104 3104 3105 3107 3108 3110 3112 3114 3117 3118 3121 3125 3129 3133 3136 3139 3142 3144 3145 3147 3148 3149 3150 3152 3153
3116 3117 3117 3118 3119 3119 3119 3119 3120 3121 3122 3123 3124 3125 3126 3126 3126 3126 3126 3127 3127 3127 3127 3127 3126 3125 3124 3124 3123 3122 3122 3122 3121 3121 3120 3120 3120 3119 3117 3117 3116 3116 3116 3116 3115 3115 3115 3115 3115 3114 3113 3112 3111 3109 3107 3105 3103 3102 3101 3102 3103 3103 3103 3104 3105 3107 3109 3110 3112 3114 3115 3118 3123 3127 3130 3133 3136 3139 3141 3142 3144 3146 3147 3148 3149 3150
3114 3115 3115 3116 3117 3117 3118 3118 3119 3120 3120 3121 3123 3123 3124 3124 3124 3124 3124 3125 3125 3125 3125 3124 3124 3123 3122 3122 3121 3121 3120 3120 3120 3119 3119 3118 3118 3117 3116 3115 3115 3115 3115 3115 3114 3114 3114 3114 3113 3113 3112 3111 3110 3108 3107 3104 3102 3102 3101 3102 3103 3103 3104 3105 3105 3107 3108 3110 3111 3113 3114 3118 3122 3125 3129 3131 3133 3135 3138 3140 3142 3144 3145 3146 3147 3148
3112 3113 3113 3114 3114 3115 3116 3117 3117 3118 3118 3119 3120 3121 3122 3122 3122 3122 3122 3123 3123 3123 3122 3122 3122 3121 3120 3120 3119 3119 3118 3118 3118 3118 3117 3117 3116 3115 3115 3114 3114 3114 3114 3114 3114 3114 3113 3113 3112 3111 3110 3109 3109 3108 3106 3105 3104 3103 3103 3103 3103 3103 3104 3105 3105 3106 3106 3108 3110 3112 3115 3118 3122 3125 3128 3129 3130 3133 3136 3139 3140 3142 3143 3144 3145 3147
3111 3111 3112 3112 3112 3113 3114 3115 3115 3116 3116 3117 3119 3120 3120 3120 3120 3120 3121 3121 3121 3121 3121 3120 3120 3119 3119 3118 3117 3117 3116 3116 3116 3116 3116 3115 3114 3113 3113 3113 3113 3112 3113 3113 3113 3113 3112 3112 3111 3110 3110 3109 3108 3108 3107 3106 3106 3105 3104 3104 3105 3105 3105 3105 3106 3106 3106 3107 3109 3111 3114 3117 3120 3122 3124 3126 3129 3133 3136 3137 3138 3140 3141 3143 3145 3147
3109 3110 3110 3111 3111 3111 3112 3113 3113 3114 3115 3116 3117 3118 3118 3118 3118 3119 3119 3119 3119 3119 3119 3118 3118 3117 3117 3116 3116 3115 3114 3114 3114 3114 3113 3113 3112 3111 3111 3111 3111 3111 3111 3111 3112 3112 3111 3111 3110 3110 3109 3109 3108 3108 3108 3108 3108 3108 3107 3107 3107 3107 3107 3107 3107 3108 3108 3109 3110 3112 3115 3117 3120 3122 3124 3126 3129 3133 3135 3136 3138 3140 3142 3144 3146 3148
3108 3108 3109 3109 3110 3110 3111 3111 3112 3112 3113 3114 3115 3116 3116 3117 3117 3117 3117 3117 3117 3117 3117 3116 3116 3115 3115 3114 3114 3113 3112 3112 3111 3111 3110 3110 3109 3109 3109 3109 3109 3109 3110 3110 3110 3110 3110 3110 3109 3109 3109 3109 3109 3109 3109 3109 3110 3110 3109 3109 3109 3109 3110 3110 3110 3110 3110 3112 3114 3116 3118 3120 3122 3124 3126 3128 3131 3133 3136 3137 3139 3141 3144 3145 3147 3148